Satellite-Ground Cal/Val Site Overpasses Predictions

Prediction of Satellite NPP Overpassing Cal/Val Site: Antarctic Dome C

Ground Cal/Val Site Location: Latitude: -75.10, Longitude: 123.35; Satellite-Ground Site NADIR distance within 100 km.

Table of predicted overpasses for the next 14.0 days since TLE Epoch: 11/30/2018
Interval Starting Time Ending Time Minimum Distance Time Minimum Distance (km)
1 12/02/2018 14:55:20 12/02/2018 14:55:49 12/02/2018 14:55:35 21.89
2 12/03/2018 14:36:39 12/03/2018 14:36:53 12/03/2018 14:36:46 85.25
3 12/04/2018 07:38:11 12/04/2018 07:38:37 12/04/2018 07:38:24 39.09
4 12/05/2018 07:19:24 12/05/2018 07:19:45 12/05/2018 07:19:35 70.80
5 12/07/2018 15:01:40 12/07/2018 15:02:03 12/07/2018 15:01:51 59.09
6 12/08/2018 14:42:49 12/08/2018 14:43:14 12/08/2018 14:43:01 50.17
7 12/09/2018 07:44:31 12/09/2018 07:44:50 12/09/2018 07:44:40 74.43
8 12/10/2018 07:25:37 12/10/2018 07:26:05 12/10/2018 07:25:51 33.36
9 12/12/2018 15:08:04 12/12/2018 15:08:10 12/12/2018 15:08:07 96.97


NCC Satellite Cal/Val Overpasses Prediction Service
